DW2485 Weather Reports


time (UTC)temp
C
wind
direction
speed
KPH
gust
KPH
rain 1hr
cm
rain 24hr
cm
rain mn
cm
humidity
%
barometer
mb
20260903061504 23 127 3.2 4.8 0.00 0.00 0.00 92 1014.1
20260903060503 23 128 3.2 3.2 0.00 0.00 0.00 90 1014.1
20260903055004 24 128 4.8 4.8 0.00 0.00 0.00 90 1014.0
20260903053504 25 118 3.2 4.8 0.00 0.00 0.00 89 1014.0
20260903051503 25 128 4.8 4.8 0.00 0.00 0.00 88 1013.9
20260903050504 25 126 3.2 4.8 0.00 0.00 0.00 88 1013.9
20260903045003 25 121 3.2 4.8 0.00 0.00 0.00 88 1013.9
20260903043504 25 95 4.8 4.8 0.00 0.00 0.00 88 1013.9
20260903043006 25 91 4.8 4.8 0.00 0.00 0.00 88 1013.9
20260903042006 25 99 4.8 8.0 0.00 0.00 0.00 87 1013.8
20260903041506 25 108 3.2 4.8 0.00 0.00 0.00 87 1013.8
20260903041006 25 98 4.8 4.8 0.00 0.00 0.00 87 1013.9
20260903040008 25 104 6.4 9.7 0.00 0.00 0.00 87 1013.9
20260903035506 25 95 6.4 9.7 0.00 0.00 0.00 87 1013.9
20260903035006 25 96 4.8 4.8 0.00 0.00 0.00 87 1014.0
20260903034006 26 114 3.2 4.8 0.00 0.00 0.00 84 1013.9
20260903031505 27 157 4.8 9.7 0.00 0.00 0.00 81 1013.9
20260903031005 27 172 9.7 14.5 0.00 0.00 0.00 82 1013.9
20260903025506 26 342 1.6 3.2 0.00 0.00 0.00 85 1014.0
20260903025006 26 355 3.2 3.2 0.00 0.00 0.00 85 1014.0
20260903024505 26 355 3.2 4.8 0.00 0.00 0.00 85 1014.1
20260903024005 26 353 4.8 4.8 0.00 0.00 0.00 85 1014.2
20260903022506 27 313 3.2 4.8 0.00 0.00 0.00 84 1013.9
20260903022006 27 309 1.6 3.2 0.00 0.00 0.00 82 1013.9
20260903021506 27 254 1.6 4.8 0.00 0.00 0.00 81 1013.8
20260903020506 28 201 6.4 11.3 0.00 0.00 0.00 80 1013.5
20260903012506 27 173 8.0 14.5 0.00 0.00 0.00 84 1012.8
20260903012006 27 172 4.8 8.0 0.00 0.00 0.00 85 1012.8
20260903011506 27 173 4.8 11.3 0.00 0.00 0.00 85 1012.7
20260903011006 27 174 4.8 8.0 0.00 0.00 0.00 85 1012.7
20260903010005 27 160 6.4 8.0 0.00 0.00 0.00 85 1012.5
20260903003506 28 171 1.6 3.2 0.00 0.00 0.00 85 1013.0
20260903003005 28 171 3.2 4.8 0.00 0.00 0.00 86 1013.1
20260903002006 28 158 8.0 9.7 0.00 0.00 0.00 84 1012.9
20260903001505 28 155 4.8 4.8 0.00 0.00 0.00 83 1012.9
20260903001005 28 196 3.2 4.8 0.00 0.00 0.00 82 1013.1
20260902235005 29 202 3.2 4.8 0.00 0.00 0.00 82 1013.3
20260902233505 30 186 3.2 4.8 0.00 0.00 0.00 78 1013.3
20260902233006 30 247 3.2 3.2 0.00 0.00 0.00 75 1013.4
20260902231005 31 268 1.6 3.2 0.00 0.00 0.00 73 1013.7
20260902230005 31 268 1.6 3.2 0.00 0.00 0.00 72 1013.5
20260902225505 31 268 1.6 3.2 0.00 0.00 0.00 71 1013.6
20260902225006 31 250 1.6 4.8 0.00 0.00 0.00 71 1013.6
20260902224505 31 247 3.2 4.8 0.00 0.00 0.00 69 1013.5
20260902224005 31 245 3.2 4.8 0.00 0.00 0.00 69 1013.4
20260902222505 31 202 6.4 11.3 0.00 0.00 0.00 67 1013.0
20260902222006 32 180 6.4 12.9 0.00 0.00 0.00 66 1013.0
20260902221005 32 200 3.2 4.8 0.00 0.00 0.00 65 1013.4
20260902215505 32 223 3.2 4.8 0.00 0.00 0.00 63 1013.5
20260902215005 32 232 3.2 4.8 0.00 0.00 0.00 60 1013.5
20260902211505 34 288 4.8 11.3 0.00 0.00 0.00 55 1013.7
20260902210005 35 292 6.4 12.9 0.00 0.00 0.00 52 1013.7
20260902205005 36 301 6.4 11.3 0.00 0.00 0.00 52 1013.9
20260902204504 35 311 8.0 12.9 0.00 0.00 0.00 52 1013.9
20260902203006 34 276 6.4 12.9 0.00 0.00 0.00 54 1013.9
20260902202005 34 236 9.7 14.5 0.00 0.00 0.00 53 1014.0
20260902200505 35 208 8.0 11.3 0.00 0.00 0.00 55 1013.9
20260902200005 35 192 6.4 12.9 0.00 0.00 0.00 54 1013.8
20260902194504 35 229 9.7 16.1 0.00 0.00 0.00 53 1014.2
20260902193005 35 242 9.7 20.9 0.00 0.00 0.00 56 1014.2
20260902192504 35 242 9.7 12.9 0.00 0.00 0.00 57 1014.3
20260902192005 35 213 8.0 19.3 0.00 0.00 0.00 55 1014.2
20260902191005 34 244 12.9 19.3 0.00 0.00 0.00 53 1014.3
20260902190005 34 212 12.9 20.9 0.00 0.00 0.00 56 1014.3
20260902185505 34 218 8.0 12.9 0.00 0.00 0.00 56 1014.2
20260902185004 33 208 12.9 20.9 0.00 0.00 0.00 53 1014.4
20260902184004 35 223 8.0 16.1 0.00 0.00 0.00 58 1014.4
20260902183505 34 253 11.3 19.3 0.00 0.00 0.00 54 1014.4
20260902181005 33 233 8.0 12.9 0.00 0.00 0.00 56 1014.6
20260902180505 33 251 11.3 19.3 0.00 0.00 0.00 57 1014.6
20260902173505 33 207 9.7 16.1 0.00 0.00 0.00 60 1014.9
20260902170505 32 205 6.4 16.1 0.00 0.00 0.00 64 1015.2
20260902170005 32 199 11.3 19.3 0.00 0.00 0.00 64 1015.1
20260902165005 31 213 9.7 19.3 0.00 0.00 0.00 67 1015.1
20260902164504 31 181 11.3 16.1 0.00 0.00 0.00 65 1015.3
20260902164005 31 195 8.0 11.3 0.00 0.00 0.00 66 1015.5
20260902163004 31 202 8.0 11.3 0.00 0.00 0.00 65 1015.4
20260902162505 31 227 4.8 11.3 0.00 0.00 0.00 67 1015.4
20260902162006 31 219 8.0 14.5 0.00 0.00 0.00 66 1015.3
20260902161005 30 202 9.7 16.1 0.00 0.00 0.00 69 1015.3
20260902155504 30 174 11.3 14.5 0.00 0.00 0.00 70 1015.2
20260902154504 30 213 4.8 11.3 0.00 0.00 0.00 71 1015.1
20260902154005 30 218 4.8 11.3 0.00 0.00 0.00 71 1015.0
20260902153004 30 243 6.4 11.3 0.00 0.00 0.00 72 1015.0
20260902152505 29 231 6.4 8.0 0.00 0.00 0.00 71 1015.0
20260902152005 29 224 3.2 4.8 0.00 0.00 0.00 73 1015.0
20260902150004 28 227 3.2 4.8 0.00 0.00 0.00 75 1015.0
20260902145504 27 187 3.2 8.0 0.00 0.00 0.00 76 1015.0
20260902144504 27 190 8.0 12.9 0.00 0.00 0.00 77 1015.0
20260902143504 27 181 8.0 11.3 0.00 0.00 0.00 77 1014.9
20260902143004 27 182 6.4 9.7 0.00 0.00 0.00 77 1014.9
20260902142504 27 181 4.8 9.7 0.00 0.00 0.00 78 1015.0
20260902142005 27 186 8.0 9.7 0.00 0.00 0.00 76 1015.0
20260902141504 27 184 4.8 9.7 0.00 0.00 0.00 77 1015.0
20260902141004 27 181 8.0 12.9 0.00 0.00 0.00 76 1015.1
20260902140504 26 194 4.8 8.0 0.00 0.00 0.00 78 1015.1
20260902140005 26 189 8.0 11.3 0.00 0.00 0.00 77 1015.1
20260902135504 26 168 8.0 12.9 0.00 0.00 0.00 77 1015.1
20260902135004 26 182 8.0 11.3 0.00 0.00 0.00 77 1015.1
20260902134504 26 189 4.8 8.0 0.00 0.00 0.00 79 1015.1
20260902134005 26 152 4.8 8.0 0.00 0.00 0.00 79 1015.1
20260902133004 25 154 4.8 8.0 0.00 0.00 0.00 81 1015.3
20260902132504 25 158 3.2 4.8 0.00 0.00 0.00 82 1015.5
20260902131504 24 194 1.6 4.8 0.00 0.00 0.00 84 1015.5
20260902131004 24 185 3.2 4.8 0.00 0.00 0.00 83 1015.5
20260902125005 24 152 4.8 4.8 0.00 0.00 0.00 83 1015.8
20260902124505 23 148 1.6 3.2 0.00 0.00 0.00 84 1015.9
20260902122004 22 218 3.2 4.8 0.00 0.00 0.00 89 1015.9
20260902121505 21 351 0.0 3.2 0.00 0.00 0.00 90 1015.7
20260902121005 21 351 0.0 3.2 0.00 0.00 0.00 89 1015.7
20260902115504 22 192 0.0 3.2 0.00 0.00 0.00 87 1015.9
20260902115004 22 192 1.6 4.8 0.00 0.00 0.00 87 1015.8
20260902114004 22 270 3.2 8.0 0.00 0.00 0.00 87 1016.0
20260902111004 21 150 4.8 4.8 0.00 0.00 0.00 88 1014.8
20260902110504 21 146 3.2 4.8 0.00 0.00 0.00 88 1014.8
20260902110007 21 163 4.8 4.8 0.00 0.00 0.00 88 1014.8
20260902105004 21 163 3.2 3.2 0.00 0.00 0.00 87 1014.8
20260902104004 21 163 3.2 4.8 0.00 0.00 0.00 87 1014.9
20260902103505 21 163 3.2 3.2 0.00 0.00 0.00 87 1014.9
20260902102504 21 163 3.2 4.8 0.00 0.00 0.00 87 1014.9
20260902101005 21 157 3.2 3.2 0.00 0.00 0.00 87 1014.9
20260902100504 21 154 1.6 4.8 0.00 0.00 0.00 87 1014.9
20260902100004 21 147 4.8 4.8 0.00 0.00 0.00 87 1014.8
20260902095504 21 151 3.2 4.8 0.00 0.00 0.00 87 1014.8
20260902092504 21 152 3.2 4.8 0.00 0.00 0.00 86 1015.1
20260902090504 22 162 3.2 3.2 0.00 0.00 0.00 85 1015.4
20260902085004 22 182 3.2 4.8 0.00 0.00 0.00 85 1015.4
20260902084504 22 184 1.6 3.2 0.00 0.00 0.00 85 1015.3
20260902083504 22 172 3.2 4.8 0.00 0.00 0.00 86 1015.1
20260902082504 22 181 1.6 3.2 0.00 0.00 0.00 85 1015.1
20260902082004 22 181 1.6 3.2 0.00 0.00 0.00 85 1015.1
20260902081504 22 181 1.6 3.2 0.00 0.00 0.00 85 1015.0
20260902081004 22 181 1.6 3.2 0.00 0.00 0.00 85 1014.9
20260902080004 22 181 3.2 4.8 0.00 0.00 0.00 85 1014.9
20260902075504 22 181 3.2 4.8 0.00 0.00 0.00 85 1014.8
20260902075004 22 208 1.6 4.8 0.00 0.00 0.00 84 1014.8
20260902074504 22 209 1.6 3.2 0.00 0.00 0.00 84 1014.9
20260902074004 22 198 1.6 3.2 0.00 0.00 0.00 85 1014.8
20260902073004 22 153 1.6 1.6 0.00 0.00 0.00 86 1014.7
20260902072504 22 153 1.6 3.2 0.00 0.00 0.00 86 1014.6
20260902072004 22 153 3.2 4.8 0.00 0.00 0.00 86 1014.4
20260902070504 22 169 1.6 4.8 0.00 0.00 0.00 85 1014.7
20260902070006 22 167 3.2 4.8 0.00 0.00 0.00 85 1014.7
20260902064504 22 190 1.6 4.8 0.00 0.00 0.00 85 1014.6
20260902062504 23 186 3.2 4.8 0.00 0.00 0.00 84 1014.8